TimeEST,TemperatureF,Dew PointF,Humidity,Sea Level PressureIn,VisibilityMPH,Wind Direction,Wind SpeedMPH,Gust SpeedMPH,PrecipitationIn,Events,Conditions,WindDirDegrees,DateUTC
12:51 AM,35.1,19.9,54,29.92,10.0,NNW,11.5,18.4,N/A,,Clear,340,2013-03-04 05:51:00
1:51 AM,34.0,19.0,54,29.92,10.0,NW,8.1,18.4,N/A,,Clear,320,2013-03-04 06:51:00
2:51 AM,34.0,18.0,52,29.92,10.0,NNW,10.4,17.3,N/A,,Clear,330,2013-03-04 07:51:00
3:51 AM,33.1,18.0,54,29.93,10.0,NNW,10.4,-,N/A,,Clear,330,2013-03-04 08:51:00
4:51 AM,32.0,17.1,54,29.95,10.0,NNW,9.2,16.1,N/A,,Clear,340,2013-03-04 09:51:00
5:51 AM,32.0,16.0,52,29.97,10.0,NNW,11.5,18.4,N/A,,Clear,340,2013-03-04 10:51:00
6:51 AM,32.0,15.1,50,30.00,10.0,NW,10.4,16.1,N/A,,Clear,320,2013-03-04 11:51:00
7:51 AM,33.1,16.0,50,30.02,10.0,NW,9.2,-,N/A,,Clear,320,2013-03-04 12:51:00
8:51 AM,35.1,16.0,46,30.03,10.0,NNW,13.8,23.0,N/A,,Clear,340,2013-03-04 13:51:00
9:51 AM,36.0,15.1,43,30.02,10.0,Variable,6.9,17.3,N/A,,Clear,0,2013-03-04 14:51:00
10:51 AM,37.9,17.1,43,30.02,10.0,WNW,13.8,19.6,N/A,,Clear,290,2013-03-04 15:51:00
11:51 AM,39.0,16.0,39,30.01,10.0,WNW,9.2,18.4,N/A,,Clear,290,2013-03-04 16:51:00
12:51 PM,41.0,16.0,36,29.99,10.0,WNW,9.2,19.6,N/A,,Clear,290,2013-03-04 17:51:00
1:51 PM,43.0,16.0,34,29.96,10.0,WNW,10.4,18.4,N/A,,Clear,300,2013-03-04 18:51:00
2:51 PM,44.1,14.0,30,29.95,10.0,West,11.5,19.6,N/A,,Clear,280,2013-03-04 19:51:00
3:51 PM,46.9,15.1,28,29.95,10.0,NW,8.1,18.4,N/A,,Clear,320,2013-03-04 20:51:00
4:51 PM,46.9,14.0,27,29.95,10.0,NW,8.1,-,N/A,,Clear,310,2013-03-04 21:51:00
5:51 PM,45.0,16.0,31,29.97,10.0,WNW,4.6,-,N/A,,Clear,290,2013-03-04 22:51:00
6:51 PM,44.1,19.9,38,29.99,10.0,WNW,3.5,-,N/A,,Clear,300,2013-03-04 23:51:00
7:51 PM,42.1,21.9,45,30.00,10.0,Calm,Calm,-,N/A,,Clear,0,2013-03-05 00:51:00
8:51 PM,37.9,21.9,53,30.01,10.0,Calm,Calm,-,N/A,,Clear,0,2013-03-05 01:51:00
9:51 PM,39.9,21.0,47,30.03,10.0,WSW,3.5,-,N/A,,Clear,250,2013-03-05 02:51:00
10:51 PM,35.1,19.9,54,30.04,10.0,Calm,Calm,-,N/A,,Clear,0,2013-03-05 03:51:00
11:51 PM,39.0,21.9,50,30.05,10.0,NNW,5.8,-,N/A,,Clear,330,2013-03-05 04:51:00